This demonstration page uses our WeatherBlox Daily Observations layout. Learn more.

Left ArrowRight Arrow

Hourly Observations for March 12, 2022

Temp ( °F °C ) Dew Point ( °F °C ) Humidity (%) Winds ( mph kmh ) Pressure ( in mb ) Visibility ( mi km ) Precip ( " mm )
12:41 am 00:41 Cloudy with Mist and Fog 53 11.7 50 10 89 89 S 7 11 29.74 1007 6 10 0.07 1.78
12:59 am 00:59 Cloudy 53 11.7 50 10 89 89 S 5 7 29.72 1007 9 14 0.07 1.78
1:59 am 01:59 Cloudy 54 12.2 51 10.6 90 90 SSE 6 9 29.65 1004 8 13 0.00 0.00
2:15 am 02:15 Cloudy 54 12.2 51 10.6 90 90 SSE 6 9 29.64 1004 8 13 0.00 0.00
2:59 am 02:59 Cloudy 54 12.2 51 10.6 90 90 SSE 3 6 29.59 1002 8 13 0.00 0.00
3:52 am 03:52 Cloudy with Mist and Fog 55 12.8 52 11.1 90 90 SSE 6 9 29.51 999 3 5 0.00 0.00
3:59 am 03:59 Cloudy with Mist and Fog 55 12.8 52 11.1 90 90 SSE 7 11 29.52 1000 3 5 0.00 0.00
4:17 am 04:17 Cloudy with Mist and Fog 55 12.8 53 11.7 93 93 S 8 13 29.51 999 2 3 0.00 0.00
4:25 am 04:25 Cloudy with Mist and Fog 56 13.3 53 11.7 90 90 S 9 15 29.51 999 2 3 0.00 0.00
4:59 am 04:59 Cloudy with Mist and Fog 57 13.9 55 12.8 93 93 S 7 11 29.49 999 2 3 0.00 0.00
5:17 am 05:17 Cloudy with Mist and Fog 58 14.4 56 13.3 93 93 S 10 17 29.48 998 3 5 0.00 0.00
5:59 am 05:59 Cloudy with Mist and Fog 59 15 56 13.3 90 90 S 12 19 29.42 996 4 6 0.00 0.00
6:59 am 06:59 Cloudy 61 16.1 58 14.4 90 90 S 15 24 29.35 994 8 13 0.00 0.00
7:17 am 07:17 Cloudy 62 16.7 59 15 90 90 S 13 20 29.34 994 8 13 0.00 0.00
7:59 am 07:59 Cloudy with Light Rain 65 18.3 61 16.1 87 87 SSW 15 24 29.32 993 3 4 0.05 1.27
8:21 am 08:21 Cloudy 66 18.9 62 16.7 87 87 SSW 13 20 29.29 992 10 16 0.02 0.51
8:59 am 08:59 Cloudy with Rain 63 17.2 59 15 87 87 WNW 22 35 29.31 993 2 2 0.17 4.32
9:02 am 09:02 Cloudy with Heavy Rain 60 15.6 57 13.9 90 90 NW 25 41 29.31 993 1 1 0.03 0.76
9:07 am 09:07 Cloudy with Heavy Rain 60 15.6 57 13.9 90 90 WNW 20 31 29.32 993 1 1 0.09 2.29
9:23 am 09:23 Cloudy with Rain 56 13.3 53 11.7 90 90 N 21 33 29.31 993 1 2 0.23 5.84
9:33 am 09:33 Cloudy with Rain 50 10 46 7.8 86 86 N 25 41 29.31 993 2 2 0.27 6.86
9:59 am 09:59 Cloudy with Thunderstorms 45 7.2 41 5 86 86 N 22 35 29.38 995 1 2 0.44 11.18
10:10 am 10:10 Cloudy with Rain 44 6.7 40 4.4 85 85 NNW 26 43 29.40 996 2 3 0.04 1.02
10:20 am 10:20 Cloudy with Light Rain 45 7.2 40 4.4 83 83 NNW 25 41 29.42 996 4 6 0.06 1.52
10:59 am 10:59 Cloudy 41 5 36 2.2 82 82 NW 26 43 29.44 997 10 16 0.06 1.52
11:21 am 11:21 Cloudy 41 5 35 1.7 79 79 NNW 21 33 29.40 996 10 16 0.00 0.00
11:59 am 11:59 Cloudy 40 4.4 33 0.6 77 77 NNW 28 44 29.49 999 10 16 0.00 0.00
12:59 pm 12:59 Cloudy 38 3.3 33 0.6 83 83 NW 25 41 29.49 999 9 14 0.01 0.25
1:53 pm 13:53 Windy with Snow Likely 37 3 30 -1 75 75 NNW 31 50 29.53 1000 4 6 0.00 0.00
1:59 pm 13:59 Windy with Snow Likely 36 2.2 31 -0.6 82 82 NW 23 37 29.54 1000 2 3 0.00 0.00
2:06 pm 14:06 Windy with Snow Likely 36 2.2 31 -0.6 82 82 NW 21 33 29.55 1001 2 3 0.00 0.00
2:13 pm 14:13 Windy with Snow Likely 36 2.2 31 -0.6 82 82 NW 26 43 29.55 1001 2 3 0.00 0.00
2:16 pm 14:16 Cloudy with Mist and Fog 35 1.7 31 -0.6 85 85 NW 25 41 29.56 1001 3 5 0.00 0.00
2:22 pm 14:22 Cloudy 36 2.2 30 -1.1 79 79 NW 29 46 29.57 1001 7 11 0.00 0.00
2:59 pm 14:59 Windy with Snow Likely 35 1.7 29 -1.7 78 78 NW 25 41 29.62 1003 3 5 0.00 0.00
3:02 pm 15:02 Windy with Snow Likely 35 1.7 29 -1.7 78 78 NW 28 44 29.63 1003 1 2 0.00 0.00
3:14 pm 15:14 Cloudy with Mist and Fog 35 1.7 28 -2.2 76 76 NW 24 39 29.63 1003 5 8 0.00 0.00
3:59 pm 15:59 Windy with Snow Likely 35 1.7 27 -2.8 72 72 NW 29 46 29.66 1005 9 14 0.00 0.00
4:16 pm 16:16 Windy with Snow Likely 35 1.7 27 -2.8 72 72 NNW 23 37 29.68 1005 9 14 0.00 0.00
4:59 pm 16:59 Cloudy 35 1.7 25 -3.9 67 67 NW 22 35 29.72 1007 9 14 0.00 0.00
5:59 pm 17:59 Mostly Cloudy 33 0.6 22 -5.6 64 64 NW 18 30 29.79 1009 10 16 0.00 0.00
6:59 pm 18:59 Mostly Cloudy 33 0.6 19 -7.2 56 56 NW 24 39 29.88 1012 10 16 0.00 0.00
7:59 pm 19:59 Partly Cloudy 32 0 19 -7.2 59 59 NW 23 37 29.94 1014 10 16 0.00 0.00
8:59 pm 20:59 Mostly Cloudy 32 0 15 -9.4 50 50 NW 20 31 30.01 1016 10 16 0.00 0.00
9:59 pm 21:59 Clear 31 -0.6 10 -12.2 42 42 NW 31 50 30.06 1018 10 16 0.00 0.00
10:59 pm 22:59 Mostly Clear 30 -1.1 7 -13.9 38 38 NW 26 43 30.13 1020 10 16 0.00 0.00
11:59 pm 23:59 Mostly Clear 30 -1.1 8 -13.3 39 39 WNW 23 37 30.16 1022 10 16 0.00 0.00

Powered by AerisWeather